"Sample Date","Sample Time","Sensor Name","Sample Value","Units","Flow Rate","Sample Interval","Sample Volume","Laser Status","Number Channels","Micron Size 0","Counts/Channel 0","Micron Size 1","Counts/Channel 1","Micron Size 2","Counts/Channel 2","Micron Size 3","Counts/Channel 3","Micron Size 4","Counts/Channel 4","Micron Size 5","Counts/Channel 5","Micron Size 6","Counts/Channel 6","Micron Size 7","Counts/Channel 7","Micron Size 8","Counts/Channel 8","Micron Size 9","Counts/Channel 9","Micron Size 10","Counts/Channel 10","Micron Size 11","Counts/Channel 11","Micron Size 12","Counts/Channel 12","Micron Size 13","Counts/Channel 13","Micron Size 14","Counts/Channel 14","Micron Size 15","Counts/Channel 15","Micron Size 16","Counts/Channel 16","Micron Size 17","Counts/Channel 17","Micron Size 18","Counts/Channel 18","Micron Size 19","Counts/Channel 19","Micron Size 20","Counts/Channel 20","Micron Size 21","Counts/Channel 21","Micron Size 22","Counts/Channel 22","Micron Size 23","Counts/Channel 23","Micron Size 24","Counts/Channel 24","Micron Size 25","Counts/Channel 25","Micron Size 26","Counts/Channel 26","Micron Size 27","Counts/Channel 27","Micron Size 28","Counts/Channel 28","Micron Size 29","Counts/Channel 29","Micron Size 30","Counts/Channel 30","Micron Size 31","Counts/Channel 31"
"07/12/06","01:00:02","AMMA06",93448.000,"cc",28323.432,6.00,2832.343,1,6,0.100,43536.000,0.200,40336.000,0.300,8346.000,0.500,835.000,1.000,395.000,5.000,0
"07/12/06","01:00:08","AMMA06",92759.000,"cc",28341.342,6.00,2834.134,1,6,0.100,43252.000,0.200,40092.000,0.300,8157.000,0.500,817.000,1.000,441.000,5.000,0
"07/12/06","01:00:14","AMMA06",92031.000,"cc",28315.289,6.00,2831.529,1,6,0.100,43118.000,0.200,39835.000,0.300,8079.000,0.500,702.000,1.000,297.000,5.000,0
"07/12/06","01:00:20","AMMA06",91613.000,"cc",28301.699,6.00,2830.170,1,6,0.100,42909.000,0.200,39996.000,0.300,7940.000,0.500,544.000,1.000,224.000,5.000,0
"07/12/06","01:00:26","AMMA06",91058.000,"cc",28304.453,6.00,2830.446,1,6,0.100,42997.000,0.200,39500.000,0.300,7821.000,0.500,538.000,1.000,202.000,5.000,0
"07/12/06","01:00:32","AMMA06",92114.000,"cc",28319.873,6.00,2831.988,1,6,0.100,43142.000,0.200,40049.000,0.300,8077.000,0.500,586.000,1.000,260.000,5.000,0
"07/12/06","01:00:38","AMMA06",91636.000,"cc",28278.258,6.00,2827.826,1,6,0.100,42768.000,0.200,40092.000,0.300,7980.000,0.500,584.000,1.000,212.000,5.000,0
"07/12/06","01:00:44","AMMA06",92881.000,"cc",28315.516,6.00,2831.552,1,6,0.100,43461.000,0.200,40256.000,0.300,8139.000,0.500,729.000,1.000,295.000,5.000,1.000
"07/12/06","01:00:50","AMMA06",91930.000,"cc",28320.639,6.00,2832.064,1,6,0.100,43287.000,0.200,40018.000,0.300,7919.000,0.500,520.000,1.000,186.000,5.000,0
"07/12/06","01:00:56","AMMA06",92110.000,"cc",28341.254,6.00,2834.126,1,6,0.100,42853.000,0.200,40194.000,0.300,8074.000,0.500,674.000,1.000,315.000,5.000,0
"07/12/06","01:01:02","AMMA06",91616.000,"cc",28264.473,6.00,2826.448,1,6,0.100,42780.000,0.200,40095.000,0.300,7997.000,0.500,553.000,1.000,191.000,5.000,0
"07/12/06","01:01:08","AMMA06",91422.000,"cc",28326.889,6.00,2832.689,1,6,0.100,42807.000,0.200,39710.000,0.300,8069.000,0.500,588.000,1.000,248.000,5.000,0
"07/12/06","01:01:14","AMMA06",92158.000,"cc",28304.424,6.00,2830.443,1,6,0.100,42891.000,0.200,40118.000,0.300,8217.000,0.500,677.000,1.000,255.000,5.000,0
"07/12/06","01:01:20","AMMA06",91836.000,"cc",28367.520,6.00,2836.752,1,6,0.100,43057.000,0.200,40079.000,0.300,7906.000,0.500,575.000,1.000,219.000,5.000,0
"07/12/06","01:01:26","AMMA06",91402.000,"cc",28294.736,6.00,2829.474,1,6,0.100,42528.000,0.200,39778.000,0.300,8234.000,0.500,631.000,1.000,231.000,5.000,0
"07/12/06","01:01:32","AMMA06",91739.000,"cc",28295.357,6.00,2829.536,1,6,0.100,42724.000,0.200,40017.000,0.300,8111.000,0.500,649.000,1.000,238.000,5.000,0
"07/12/06","01:01:38","AMMA06",94906.000,"cc",28316.773,6.00,2831.678,1,6,0.100,43832.000,0.200,40497.000,0.300,8880.000,0.500,1121.000,1.000,576.000,5.000,0
"07/12/06","01:01:44","AMMA06",97090.000,"cc",28360.389,6.00,2836.039,1,6,0.100,44368.000,0.200,40817.000,0.300,9465.000,0.500,1554.000,1.000,885.000,5.000,1.000
"07/12/06","01:01:50","AMMA06",91659.000,"cc",28372.867,6.00,2837.287,1,6,0.100,42814.000,0.200,39868.000,0.300,8110.000,0.500,648.000,1.000,219.000,5.000,0
"07/12/06","01:01:56","AMMA06",91585.000,"cc",28272.523,6.00,2827.252,1,6,0.100,42553.000,0.200,40084.000,0.300,8028.000,0.500,651.000,1.000,269.000,5.000,0
"07/12/06","01:02:02","AMMA06",91421.000,"cc",28221.352,6.00,2822.135,1,6,0.100,42430.000,0.200,39851.000,0.300,8247.000,0.500,644.000,1.000,248.000,5.000,1.000
"07/12/06","01:02:08","AMMA06",92137.000,"cc",28311.010,6.00,2831.101,1,6,0.100,43178.000,0.200,39812.000,0.300,8298.000,0.500,623.000,1.000,226.000,5.000,0
"07/12/06","01:02:14","AMMA06",91996.000,"cc",28389.545,6.00,2838.955,1,6,0.100,42780.000,0.200,40293.000,0.300,8105.000,0.500,612.000,1.000,206.000,5.000,0
"07/12/06","01:02:20","AMMA06",91684.000,"cc",28307.455,6.00,2830.746,1,6,0.100,42551.000,0.200,40158.000,0.300,8155.000,0.500,601.000,1.000,219.000,5.000,0
"07/12/06","01:02:26","AMMA06",92185.000,"cc",28327.865,6.00,2832.787,1,6,0.100,42533.000,0.200,40345.000,0.300,8448.000,0.500,598.000,1.000,261.000,5.000,0
"07/12/06","01:02:32","AMMA06",92214.000,"cc",28304.791,6.00,2830.479,1,6,0.100,42566.000,0.200,40570.000,0.300,8191.000,0.500,645.000,1.000,242.000,5.000,0
"07/12/06","01:02:38","AMMA06",91863.000,"cc",28362.695,6.00,2836.270,1,6,0.100,42107.000,0.200,40411.000,0.300,8384.000,0.500,687.000,1.000,274.000,5.000,0
"07/12/06","01:02:44","AMMA06",92234.000,"cc",28308.533,6.00,2830.854,1,6,0.100,42350.000,0.200,40526.000,0.300,8418.000,0.500,690.000,1.000,250.000,5.000,0
"07/12/06","01:02:50","AMMA06",91380.000,"cc",28295.160,6.00,2829.516,1,6,0.100,41775.000,0.200,40177.000,0.300,8445.000,0.500,664.000,1.000,319.000,5.000,0
"07/12/06","01:02:56","AMMA06",92141.000,"cc",28291.969,6.00,2829.197,1,6,0.100,42266.000,0.200,40402.000,0.300,8539.000,0.500,683.000,1.000,251.000,5.000,0
"07/12/06","01:03:02","AMMA06",91985.000,"cc",28360.701,6.00,2836.070,1,6,0.100,42159.000,0.200,40524.000,0.300,8470.000,0.500,588.000,1.000,244.000,5.000,0
"07/12/06","01:03:08","AMMA06",92159.000,"cc",28311.006,6.00,2831.101,1,6,0.100,42178.000,0.200,40522.000,0.300,8485.000,0.500,707.000,1.000,267.000,5.000,0
"07/12/06","01:03:14","AMMA06",92128.000,"cc",28331.791,6.00,2833.179,1,6,0.100,42265.000,0.200,40421.000,0.300,8369.000,0.500,756.000,1.000,317.000,5.000,0
"07/12/06","01:03:20","AMMA06",93935.000,"cc",28326.324,6.00,2832.633,1,6,0.100,42883.000,0.200,40492.000,0.300,9039.000,0.500,1024.000,1.000,497.000,5.000,0
"07/12/06","01:03:26","AMMA06",93119.000,"cc",28289.324,6.00,2828.933,1,6,0.100,42376.000,0.200,41021.000,0.300,8586.000,0.500,813.000,1.000,323.000,5.000,0
"07/12/06","01:03:32","AMMA06",93300.000,"cc",28313.500,6.00,2831.350,1,6,0.100,42588.000,0.200,40707.000,0.300,8891.000,0.500,791.000,1.000,323.000,5.000,0
"07/12/06","01:03:38","AMMA06",91454.000,"cc",28294.848,6.00,2829.485,1,6,0.100,41902.000,0.200,40301.000,0.300,8410.000,0.500,601.000,1.000,240.000,5.000,0
"07/12/06","01:03:44","AMMA06",92094.000,"cc",28267.738,6.00,2826.774,1,6,0.100,42267.000,0.200,40491.000,0.300,8418.000,0.500,683.000,1.000,235.000,5.000,0
"07/12/06","01:03:50","AMMA06",91903.000,"cc",28351.832,6.00,2835.183,1,6,0.100,42116.000,0.200,40466.000,0.300,8365.000,0.500,716.000,1.000,240.000,5.000,0
"07/12/06","01:03:56","AMMA06",92311.000,"cc",28339.072,6.00,2833.908,1,6,0.100,42308.000,0.200,40496.000,0.300,8490.000,0.500,711.000,1.000,306.000,5.000,0
"07/12/06","01:04:02","AMMA06",92460.000,"cc",28301.602,6.00,2830.160,1,6,0.100,42200.000,0.200,40468.000,0.300,8648.000,0.500,801.000,1.000,343.000,5.000,0
"07/12/06","01:04:08","AMMA06",91298.000,"cc",28302.106,6.00,2830.211,1,6,0.100,41945.000,0.200,40180.000,0.300,8345.000,0.500,609.000,1.000,219.000,5.000,0
"07/12/06","01:04:14","AMMA06",92601.000,"cc",28328.414,6.00,2832.842,1,6,0.100,42393.000,0.200,40636.000,0.300,8506.000,0.500,723.000,1.000,343.000,5.000,0
"07/12/06","01:04:20","AMMA06",91504.000,"cc",28307.889,6.00,2830.789,1,6,0.100,41965.000,0.200,40308.000,0.300,8377.000,0.500,599.000,1.000,255.000,5.000,0
"07/12/06","01:04:26","AMMA06",93915.000,"cc",28314.490,6.00,2831.449,1,6,0.100,42485.000,0.200,40946.000,0.300,8892.000,0.500,1031.000,1.000,561.000,5.000,0
"07/12/06","01:04:32","AMMA06",95001.000,"cc",28360.135,6.00,2836.014,1,6,0.100,43232.000,0.200,40774.000,0.300,9078.000,0.500,1207.000,1.000,710.000,5.000,0
"07/12/06","01:04:38","AMMA06",93277.000,"cc",28323.484,6.00,2832.349,1,6,0.100,43318.000,0.200,40313.000,0.300,8489.000,0.500,786.000,1.000,371.000,5.000,0
"07/12/06","01:04:44","AMMA06",92510.000,"cc",28259.449,6.00,2825.945,1,6,0.100,42690.000,0.200,40391.000,0.300,8427.000,0.500,710.000,1.000,292.000,5.000,0
"07/12/06","01:04:50","AMMA06",91530.000,"cc",28330.762,6.00,2833.076,1,6,0.100,42071.000,0.200,40480.000,0.300,8220.000,0.500,531.000,1.000,228.000,5.000,0
"07/12/06","01:04:56","AMMA06",92115.000,"cc",28333.844,6.00,2833.385,1,6,0.100,42403.000,0.200,40546.000,0.300,8272.000,0.500,613.000,1.000,281.000,5.000,0
"07/12/06","01:05:02","AMMA06",94872.000,"cc",28304.529,6.00,2830.453,1,6,0.100,43356.000,0.200,40909.000,0.300,8927.000,0.500,1097.000,1.000,583.000,5.000,0
"07/12/06","01:05:08","AMMA06",93694.000,"cc",28341.141,6.00,2834.114,1,6,0.100,43064.000,0.200,40396.000,0.300,8680.000,0.500,994.000,1.000,560.000,5.000,0
"07/12/06","01:05:14","AMMA06",91222.000,"cc",28264.531,6.00,2826.453,1,6,0.100,42380.000,0.200,39961.000,0.300,8020.000,0.500,574.000,1.000,286.000,5.000,1.000
"07/12/06","01:05:20","AMMA06",91125.000,"cc",28290.818,6.00,2829.082,1,6,0.100,42333.000,0.200,39939.000,0.300,8068.000,0.500,567.000,1.000,218.000,5.000,0
"07/12/06","01:05:26","AMMA06",91602.000,"cc",28338.455,6.00,2833.846,1,6,0.100,42239.000,0.200,39923.000,0.300,8404.000,0.500,707.000,1.000,329.000,5.000,0
"07/12/06","01:05:32","AMMA06",91559.000,"cc",28284.037,6.00,2828.404,1,6,0.100,42080.000,0.200,40174.000,0.300,8343.000,0.500,679.000,1.000,283.000,5.000,0
"07/12/06","01:05:38","AMMA06",92332.000,"cc",28348.316,6.00,2834.832,1,6,0.100,42655.000,0.200,40373.000,0.300,8245.000,0.500,764.000,1.000,295.000,5.000,0
"07/12/06","01:05:44","AMMA06",91231.000,"cc",28356.772,6.00,2835.677,1,6,0.100,42294.000,0.200,39824.000,0.300,8194.000,0.500,634.000,1.000,285.000,5.000,0
"07/12/06","01:05:50","AMMA06",90302.000,"cc",28357.553,6.00,2835.755,1,6,0.100,41685.000,0.200,39685.000,0.300,8214.000,0.500,527.000,1.000,191.000,5.000,0
"07/12/06","01:05:56","AMMA06",90780.000,"cc",28301.107,6.00,2830.111,1,6,0.100,41883.000,0.200,40039.000,0.300,8047.000,0.500,577.000,1.000,234.000,5.000,0
"07/12/06","01:06:02","AMMA06",90924.000,"cc",28289.666,6.00,2828.967,1,6,0.100,41973.000,0.200,40110.000,0.300,8086.000,0.500,554.000,1.000,201.000,5.000,0
"07/12/06","01:06:08","AMMA06",91292.000,"cc",28220.742,6.00,2822.075,1,6,0.100,42339.000,0.200,40008.000,0.300,8064.000,0.500,621.000,1.000,259.000,5.000,1.000
"07/12/06","01:06:14","AMMA06",90431.000,"cc",28295.897,6.00,2829.590,1,6,0.100,42097.000,0.200,39497.000,0.300,8002.000,0.500,583.000,1.000,252.000,5.000,0
"07/12/06","01:06:20","AMMA06",90306.000,"cc",28366.570,6.00,2836.657,1,6,0.100,41996.000,0.200,39464.000,0.300,8031.000,0.500,572.000,1.000,243.000,5.000,0
"07/12/06","01:06:26","AMMA06",92464.000,"cc",28338.529,6.00,2833.853,1,6,0.100,42211.000,0.200,40072.000,0.300,8603.000,0.500,1038.000,1.000,540.000,5.000,0
"07/12/06","01:06:32","AMMA06",91510.000,"cc",28368.949,6.00,2836.895,1,6,0.100,42289.000,0.200,39528.000,0.300,8420.000,0.500,835.000,1.000,438.000,5.000,0
"07/12/06","01:06:38","AMMA06",90248.000,"cc",28307.982,6.00,2830.798,1,6,0.100,41642.000,0.200,39610.000,0.300,8062.000,0.500,631.000,1.000,303.000,5.000,0
"07/12/06","01:06:44","AMMA06",90932.000,"cc",28355.072,6.00,2835.507,1,6,0.100,42074.000,0.200,39434.000,0.300,8348.000,0.500,735.000,1.000,341.000,5.000,0
"07/12/06","01:06:50","AMMA06",93047.000,"cc",28251.104,6.00,2825.111,1,6,0.100,43021.000,0.200,39768.000,0.300,8577.000,0.500,1122.000,1.000,559.000,5.000,0
"07/12/06","01:06:56","AMMA06",90679.000,"cc",28316.344,6.00,2831.635,1,6,0.100,41756.000,0.200,39493.000,0.300,8324.000,0.500,743.000,1.000,363.000,5.000,0
"07/12/06","01:07:02","AMMA06",95170.000,"cc",28316.080,6.00,2831.608,1,6,0.100,45835.000,0.200,39902.000,0.300,8289.000,0.500,775.000,1.000,368.000,5.000,1.000
"07/12/06","01:07:08","AMMA06",94857.000,"cc",28257.928,6.00,2825.793,1,6,0.100,44600.000,0.200,39940.000,0.300,8714.000,0.500,1028.000,1.000,575.000,5.000,0
"07/12/06","01:07:14","AMMA06",92914.000,"cc",28352.748,6.00,2835.275,1,6,0.100,43137.000,0.200,39767.000,0.300,8489.000,0.500,1009.000,1.000,512.000,5.000,0
"07/12/06","01:07:20","AMMA06",94117.000,"cc",28307.738,6.00,2830.774,1,6,0.100,44581.000,0.200,39843.000,0.300,8424.000,0.500,838.000,1.000,431.000,5.000,0
"07/12/06","01:07:26","AMMA06",100573.000,"cc",28341.451,6.00,2834.145,1,6,0.100,48722.000,0.200,41160.000,0.300,9025.000,0.500,1103.000,1.000,563.000,5.000,0
"07/12/06","01:07:32","AMMA06",94626.000,"cc",28331.498,6.00,2833.150,1,6,0.100,44500.000,0.200,40233.000,0.300,8581.000,0.500,863.000,1.000,448.000,5.000,1.000
"07/12/06","01:07:38","AMMA06",91588.000,"cc",28298.932,6.00,2829.893,1,6,0.100,42785.000,0.200,39466.000,0.300,8228.000,0.500,763.000,1.000,346.000,5.000,0
"07/12/06","01:07:44","AMMA06",92475.000,"cc",28298.309,6.00,2829.831,1,6,0.100,43479.000,0.200,39802.000,0.300,8131.000,0.500,706.000,1.000,357.000,5.000,0
"07/12/06","01:07:50","AMMA06",97074.000,"cc",28348.813,6.00,2834.881,1,6,0.100,44891.000,0.200,40521.000,0.300,9357.000,0.500,1501.000,1.000,804.000,5.000,0
"07/12/06","01:07:56","AMMA06",97286.000,"cc",28322.227,6.00,2832.223,1,6,0.100,45308.000,0.200,40507.000,0.300,9295.000,0.500,1359.000,1.000,817.000,5.000,0
"07/12/06","01:08:02","AMMA06",94283.000,"cc",28310.147,6.00,2831.015,1,6,0.100,44489.000,0.200,40170.000,0.300,8362.000,0.500,842.000,1.000,420.000,5.000,0
"07/12/06","01:08:08","AMMA06",94979.000,"cc",28290.016,6.00,2829.002,1,6,0.100,43421.000,0.200,40376.000,0.300,9232.000,0.500,1305.000,1.000,645.000,5.000,0
"07/12/06","01:08:14","AMMA06",91345.000,"cc",28332.440,6.00,2833.244,1,6,0.100,42231.000,0.200,39937.000,0.300,8240.000,0.500,635.000,1.000,302.000,5.000,0
"07/12/06","01:08:20","AMMA06",89988.000,"cc",28310.895,6.00,2831.090,1,6,0.100,42114.000,0.200,39263.000,0.300,7834.000,0.500,566.000,1.000,211.000,5.000,0
"07/12/06","01:08:26","AMMA06",92180.000,"cc",28287.106,6.00,2828.711,1,6,0.100,42259.000,0.200,39852.000,0.300,8547.000,0.500,983.000,1.000,539.000,5.000,0
"07/12/06","01:08:32","AMMA06",91251.000,"cc",28301.002,6.00,2830.100,1,6,0.100,41963.000,0.200,39826.000,0.300,8288.000,0.500,794.000,1.000,380.000,5.000,0
"07/12/06","01:08:38","AMMA06",93746.000,"cc",28319.867,6.00,2831.987,1,6,0.100,42963.000,0.200,40061.000,0.300,8803.000,0.500,1274.000,1.000,644.000,5.000,1.000
"07/12/06","01:08:44","AMMA06",91036.000,"cc",28351.570,6.00,2835.157,1,6,0.100,42253.000,0.200,39676.000,0.300,8197.000,0.500,644.000,1.000,266.000,5.000,0
"07/12/06","01:08:50","AMMA06",89941.000,"cc",28270.287,6.00,2827.029,1,6,0.100,41874.000,0.200,39473.000,0.300,7829.000,0.500,527.000,1.000,238.000,5.000,0
"07/12/06","01:08:56","AMMA06",90953.000,"cc",28340.723,6.00,2834.073,1,6,0.100,42867.000,0.200,39468.000,0.300,7785.000,0.500,584.000,1.000,249.000,5.000,0
"07/12/06","01:09:02","AMMA06",92378.000,"cc",28387.826,6.00,2838.783,1,6,0.100,43314.000,0.200,39930.000,0.300,8116.000,0.500,671.000,1.000,346.000,5.000,1.000
"07/12/06","01:09:08","AMMA06",93943.000,"cc",28285.811,6.00,2828.581,1,6,0.100,43794.000,0.200,39873.000,0.300,8553.000,0.500,1102.000,1.000,620.000,5.000,1.000
"07/12/06","01:09:14","AMMA06",90906.000,"cc",28306.785,6.00,2830.679,1,6,0.100,42704.000,0.200,39580.000,0.300,7713.000,0.500,632.000,1.000,277.000,5.000,0
"07/12/06","01:09:20","AMMA06",89885.000,"cc",28320.740,6.00,2832.074,1,6,0.100,42240.000,0.200,39186.000,0.300,7845.000,0.500,442.000,1.000,172.000,5.000,0
"07/12/06","01:09:26","AMMA06",90438.000,"cc",28278.432,6.00,2827.843,1,6,0.100,42490.000,0.200,39285.000,0.300,7850.000,0.500,557.000,1.000,256.000,5.000,0
"07/12/06","01:09:32","AMMA06",91771.000,"cc",28321.449,6.00,2832.145,1,6,0.100,43379.000,0.200,39685.000,0.300,7738.000,0.500,657.000,1.000,312.000,5.000,0
"07/12/06","01:09:38","AMMA06",92152.000,"cc",28354.803,6.00,2835.481,1,6,0.100,43649.000,0.200,39509.000,0.300,8017.000,0.500,653.000,1.000,324.000,5.000,0
"07/12/06","01:09:44","AMMA06",89769.000,"cc",28281.754,6.00,2828.176,1,6,0.100,42472.000,0.200,39250.000,0.300,7453.000,0.500,425.000,1.000,169.000,5.000,0
"07/12/06","01:09:50","AMMA06",89872.000,"cc",28378.887,6.00,2837.889,1,6,0.100,42650.000,0.200,38919.000,0.300,7685.000,0.500,431.000,1.000,187.000,5.000,0
"07/12/06","01:09:56","AMMA06",91283.000,"cc",28326.244,6.00,2832.625,1,6,0.100,42676.000,0.200,39623.000,0.300,8041.000,0.500,612.000,1.000,331.000,5.000,0
"07/12/06","01:10:02","AMMA06",91697.000,"cc",28270.660,6.00,2827.066,1,6,0.100,43161.000,0.200,39713.000,0.300,7867.000,0.500,671.000,1.000,285.000,5.000,0
"07/12/06","01:10:08","AMMA06",90930.000,"cc",28329.395,6.00,2832.940,1,6,0.100,42770.000,0.200,39628.000,0.300,7760.000,0.500,527.000,1.000,245.000,5.000,0
"07/12/06","01:10:14","AMMA06",92322.000,"cc",28280.770,6.00,2828.077,1,6,0.100,43514.000,0.200,39625.000,0.300,8142.000,0.500,723.000,1.000,318.000,5.000,0
"07/12/06","01:10:20","AMMA06",93641.000,"cc",28320.063,6.00,2832.006,1,6,0.100,43898.000,0.200,39706.000,0.300,8466.000,0.500,1027.000,1.000,544.000,5.000,0
"07/12/06","01:10:26","AMMA06",91964.000,"cc",28314.258,6.00,2831.426,1,6,0.100,43222.000,0.200,39832.000,0.300,7873.000,0.500,714.000,1.000,323.000,5.000,0
"07/12/06","01:10:32","AMMA06",92101.000,"cc",28344.031,6.00,2834.403,1,6,0.100,43633.000,0.200,39827.000,0.300,7731.000,0.500,610.000,1.000,300.000,5.000,0
"07/12/06","01:10:38","AMMA06",91294.000,"cc",28329.566,6.00,2832.957,1,6,0.100,43406.000,0.200,39498.000,0.300,7674.000,0.500,504.000,1.000,212.000,5.000,0
"07/12/06","01:10:44","AMMA06",91477.000,"cc",28335.037,6.00,2833.504,1,6,0.100,43250.000,0.200,39823.000,0.300,7698.000,0.500,511.000,1.000,195.000,5.000,0
"07/12/06","01:10:50","AMMA06",91783.000,"cc",28327.818,6.00,2832.782,1,6,0.100,43219.000,0.200,39515.000,0.300,8062.000,0.500,665.000,1.000,322.000,5.000,0
"07/12/06","01:10:56","AMMA06",91844.000,"cc",28296.158,6.00,2829.616,1,6,0.100,43435.000,0.200,39574.000,0.300,7825.000,0.500,668.000,1.000,342.000,5.000,0
"07/12/06","01:11:02","AMMA06",91249.000,"cc",28316.356,6.00,2831.636,1,6,0.100,43135.000,0.200,39374.000,0.300,7860.000,0.500,612.000,1.000,268.000,5.000,0
"07/12/06","01:11:08","AMMA06",91248.000,"cc",28276.598,6.00,2827.660,1,6,0.100,42802.000,0.200,39948.000,0.300,7737.000,0.500,542.000,1.000,219.000,5.000,0
"07/12/06","01:11:14","AMMA06",91729.000,"cc",28380.658,6.00,2838.066,1,6,0.100,43544.000,0.200,39693.000,0.300,7708.000,0.500,541.000,1.000,242.000,5.000,1.000
"07/12/06","01:11:20","AMMA06",92611.000,"cc",28287.986,6.00,2828.799,1,6,0.100,43338.000,0.200,40025.000,0.300,8137.000,0.500,785.000,1.000,326.000,5.000,0
"07/12/06","01:11:26","AMMA06",91568.000,"cc",28320.691,6.00,2832.069,1,6,0.100,43064.000,0.200,39686.000,0.300,7948.000,0.500,598.000,1.000,272.000,5.000,0
"07/12/06","01:11:32","AMMA06",93986.000,"cc",28336.297,6.00,2833.630,1,6,0.100,43788.000,0.200,40087.000,0.300,8632.000,0.500,970.000,1.000,509.000,5.000,0
"07/12/06","01:11:38","AMMA06",93618.000,"cc",28283.246,6.00,2828.325,1,6,0.100,43591.000,0.200,40266.000,0.300,8367.000,0.500,896.000,1.000,498.000,5.000,0
"07/12/06","01:11:44","AMMA06",92456.000,"cc",28288.494,6.00,2828.850,1,6,0.100,43287.000,0.200,39838.000,0.300,8176.000,0.500,765.000,1.000,390.000,5.000,0
"07/12/06","01:11:50","AMMA06",91863.000,"cc",28341.160,6.00,2834.116,1,6,0.100,42762.000,0.200,39740.000,0.300,8272.000,0.500,761.000,1.000,328.000,5.000,0
"07/12/06","01:11:56","AMMA06",91538.000,"cc",28332.342,6.00,2833.234,1,6,0.100,42850.000,0.200,39692.000,0.300,8122.000,0.500,597.000,1.000,277.000,5.000,0
"07/12/06","01:12:02","AMMA06",91405.000,"cc",28332.047,6.00,2833.205,1,6,0.100,42731.000,0.200,39690.000,0.300,8125.000,0.500,609.000,1.000,250.000,5.000,0
"07/12/06","01:12:08","AMMA06",91758.000,"cc",28322.779,6.00,2832.278,1,6,0.100,42791.000,0.200,40063.000,0.300,8048.000,0.500,578.000,1.000,278.000,5.000,0
"07/12/06","01:12:14","AMMA06",94997.000,"cc",28334.734,6.00,2833.474,1,6,0.100,43571.000,0.200,40479.000,0.300,9026.000,0.500,1214.000,1.000,707.000,5.000,0
"07/12/06","01:12:20","AMMA06",93763.000,"cc",28368.027,6.00,2836.803,1,6,0.100,43067.000,0.200,40329.000,0.300,8800.000,0.500,1031.000,1.000,535.000,5.000,1.000
"07/12/06","01:12:26","AMMA06",91314.000,"cc",28288.111,6.00,2828.811,1,6,0.100,42409.000,0.200,39837.000,0.300,8147.000,0.500,636.000,1.000,285.000,5.000,0
"07/12/06","01:12:32","AMMA06",91373.000,"cc",28259.305,6.00,2825.931,1,6,0.100,42156.000,0.200,39880.000,0.300,8358.000,0.500,708.000,1.000,271.000,5.000,0
"07/12/06","01:12:38","AMMA06",91638.000,"cc",28274.772,6.00,2827.477,1,6,0.100,42082.000,0.200,40250.000,0.300,8327.000,0.500,645.000,1.000,334.000,5.000,0
"07/12/06","01:12:44","AMMA06",93253.000,"cc",28335.330,6.00,2833.533,1,6,0.100,43092.000,0.200,40273.000,0.300,8477.000,0.500,924.000,1.000,487.000,5.000,0
"07/12/06","01:12:50","AMMA06",91883.000,"cc",28345.078,6.00,2834.508,1,6,0.100,42376.000,0.200,40396.000,0.300,8280.000,0.500,614.000,1.000,217.000,5.000,0
"07/12/06","01:12:56","AMMA06",91754.000,"cc",28377.223,6.00,2837.722,1,6,0.100,41986.000,0.200,40261.000,0.300,8482.000,0.500,717.000,1.000,308.000,5.000,0
"07/12/06","01:13:02","AMMA06",93071.000,"cc",28303.100,6.00,2830.310,1,6,0.100,42457.000,0.200,40512.000,0.300,8732.000,0.500,891.000,1.000,479.000,5.000,0
"07/12/06","01:13:08","AMMA06",92402.000,"cc",28269.242,6.00,2826.924,1,6,0.100,42365.000,0.200,40494.000,0.300,8473.000,0.500,751.000,1.000,319.000,5.000,0
"07/12/06","01:13:14","AMMA06",92309.000,"cc",28410.147,6.00,2841.015,1,6,0.100,42259.000,0.200,40346.000,0.300,8422.000,0.500,845.000,1.000,437.000,5.000,0
"07/12/06","01:13:20","AMMA06",91760.000,"cc",28299.086,6.00,2829.909,1,6,0.100,42329.000,0.200,40131.000,0.300,8345.000,0.500,663.000,1.000,292.000,5.000,0
"07/12/06","01:13:26","AMMA06",91721.000,"cc",28277.557,6.00,2827.756,1,6,0.100,42634.000,0.200,40241.000,0.300,8067.000,0.500,547.000,1.000,232.000,5.000,0
"07/12/06","01:13:32","AMMA06",91042.000,"cc",28323.881,6.00,2832.388,1,6,0.100,42471.000,0.200,39928.000,0.300,7991.000,0.500,486.000,1.000,166.000,5.000,0
"07/12/06","01:13:38","AMMA06",90811.000,"cc",28302.867,6.00,2830.287,1,6,0.100,42189.000,0.200,39909.000,0.300,7944.000,0.500,552.000,1.000,217.000,5.000,0
"07/12/06","01:13:44","AMMA06",91498.000,"cc",28375.834,6.00,2837.584,1,6,0.100,42438.000,0.200,40167.000,0.300,8101.000,0.500,552.000,1.000,240.000,5.000,0
"07/12/06","01:13:50","AMMA06",91182.000,"cc",28283.668,6.00,2828.367,1,6,0.100,42271.000,0.200,39942.000,0.300,8198.000,0.500,533.000,1.000,238.000,5.000,0
"07/12/06","01:13:56","AMMA06",91510.000,"cc",28284.072,6.00,2828.408,1,6,0.100,42592.000,0.200,40075.000,0.300,8052.000,0.500,557.000,1.000,234.000,5.000,0
"07/12/06","01:14:02","AMMA06",92779.000,"cc",28350.727,6.00,2835.073,1,6,0.100,42636.000,0.200,40285.000,0.300,8703.000,0.500,769.000,1.000,386.000,5.000,0
"07/12/06","01:14:08","AMMA06",95808.000,"cc",28268.529,6.00,2826.853,1,6,0.100,43849.000,0.200,40853.000,0.300,9143.000,0.500,1310.000,1.000,653.000,5.000,0
"07/12/06","01:14:14","AMMA06",93781.000,"cc",28345.408,6.00,2834.541,1,6,0.100,43535.000,0.200,40298.000,0.300,8568.000,0.500,914.000,1.000,466.000,5.000,0